Weather History for Hurlburt Field, FL

Change the Weather History Date:

Sunday, February 3, 2013

  Actual Average Record
Temperature  
Mean Temperature 56 °F -  
Max Temperature 67 °F 59 °F 71 °F (1997)
Min Temperature 44 °F 42 °F 30 °F (2009)
Degree Days  
Heating Degree Days 10    
Growing Degree Days 6 (Base 50)    
Moisture  
Dew Point 46 °F    
Average Humidity 67    
Maximum Humidity 100    
Minimum Humidity 37    
Precipitation  
Precipitation 0.00 in - - ()
Sea Level Pressure  
Sea Level Pressure 30.18 in    
Wind  
Wind Speed 8 mph (NW)    
Max Wind Speed 14 mph    
Max Gust Speed 16 mph    
Visibility 10 miles    
Events Rain    
Averages and records for this station are not official NWS values.
T = Trace of Precipitation, MM = Missing Value Source: NWS Daily Summary

Daily Weather History Graph

Daily Weather History Graph

Search for Another Location

Airport:

Trip Planner

Search our weather history database for the weather conditions in past years. The results will help you decide how hot, cold, wet, or windy it might be!

Date:

Astronomy

Feb. 03, 2013 Rise Set
Actual Time 6:36 AM CST 5:25 PM CST
Civil Twilight 6:11 AM CST 5:50 PM CST
Nautical Twilight 5:42 AM CST 6:19 PM CST
Astronomical Twilight 5:14 AM CST 6:47 PM CST
Moon 12:02 AM CST (2/3) 11:04 AM CST (2/3)
Length of Visible Light 11h 39m
Length of Day
10h 49m
Waning Gibbous, 48% of the Moon is Illuminated
Feb 3
Waning Gibbous
Feb 10
New
Feb 17
First Quarter
Feb 25
Full
Mar 4
Last Quarter

Hourly Weather History & Observations

Time (CST) Temp. Windchill Dew Point Humidity Pressure Visibility Wind Dir Wind Speed Gust Speed Precip Events Conditions
12:58 AM 57.7 °F - 54.3 °F 88% 30.18 in 10.0 mi WNW 6.9 mph - N/A   Mostly Cloudy
1:58 AM 56.1 °F - 53.8 °F 92% 30.18 in 10.0 mi WNW 4.6 mph - N/A   Mostly Cloudy
2:58 AM 52.3 °F - 51.8 °F 98% 30.19 in 10.0 mi North 9.2 mph - N/A   Scattered Clouds
3:58 AM 49.3 °F - 49.3 °F 100% 30.19 in 10.0 mi North 10.4 mph - N/A   Clear
4:58 AM 47.7 °F - 47.7 °F 100% 30.19 in 10.0 mi North 10.4 mph - N/A   Clear
5:58 AM 46.2 °F 41.2 °F 46.2 °F 100% 30.20 in 10.0 mi North 10.4 mph - N/A   Clear
6:58 AM 44.4 °F 39.5 °F 44.4 °F 100% 30.23 in 10.0 mi North 9.2 mph - N/A   Clear
7:58 AM 49.3 °F - 49.3 °F 100% 30.24 in 10.0 mi North 8.1 mph - N/A   Clear
8:58 AM 55.2 °F - 47.7 °F 76% 30.25 in 10.0 mi North 5.8 mph - N/A   Clear
9:25 AM 57.2 °F - 44.6 °F 63% 30.24 in 10.0 mi North 6.9 mph - N/A Rain Light Rain
9:35 AM 59.0 °F - 44.6 °F 59% 30.24 in 10.0 mi North 5.8 mph - N/A   Clear
9:58 AM 59.7 °F - 43.5 °F 55% 30.25 in 10.0 mi Variable 4.6 mph - 0.00 in   Clear
10:48 AM 62.6 °F - 41.0 °F 45% 30.22 in 10.0 mi NNW 9.2 mph - N/A Rain Light Rain
10:58 AM 64.0 °F - 40.8 °F 43% 30.23 in 10.0 mi NNW 10.4 mph - 0.00 in Rain Light Rain
11:00 AM 64.4 °F - 41.0 °F 42% 30.22 in 10.0 mi North 9.2 mph - N/A   Clear
11:58 AM 65.3 °F - 41.9 °F 42% 30.20 in 10.0 mi Variable 3.5 mph - 0.00 in   Clear
12:02 PM 64.4 °F - 41.0 °F 42% 30.19 in 10.0 mi NNW 5.8 mph - N/A Rain Light Rain
12:05 PM 64.4 °F - 42.8 °F 45% 30.19 in 10.0 mi NW 11.5 mph - N/A   Clear
12:46 PM 66.2 °F - 42.8 °F 43% 30.15 in 10.0 mi NW 8.1 mph - N/A Rain Light Rain
12:50 PM 66.2 °F - 42.8 °F 43% 30.15 in 10.0 mi WNW 9.2 mph - N/A   Clear
12:58 PM 66.6 °F - 42.1 °F 41% 30.16 in 10.0 mi NW 12.7 mph 16.1 mph 0.00 in   Clear
1:28 PM 66.2 °F - 39.2 °F 37% 30.14 in 10.0 mi NW 12.7 mph - N/A   Clear
1:58 PM 67.3 °F - 41.0 °F 38% 30.14 in 10.0 mi WNW 10.4 mph - N/A   Clear
2:58 PM 64.4 °F - 47.3 °F 54% 30.13 in 10.0 mi SW 10.4 mph - N/A   Clear
3:58 PM 63.0 °F - 48.6 °F 59% 30.12 in 10.0 mi WSW 13.8 mph - N/A   Clear
4:58 PM 61.0 °F - 48.6 °F 64% 30.13 in 10.0 mi West 9.2 mph - N/A   Clear
5:58 PM 59.0 °F - 50.0 °F 72% 30.13 in 10.0 mi West 8.1 mph - N/A   Clear
6:58 PM 58.6 °F - 51.3 °F 76% 30.13 in 10.0 mi West 9.2 mph - N/A   Clear
7:58 PM 55.8 °F - 46.9 °F 72% 30.14 in 10.0 mi WNW 6.9 mph - N/A   Clear
8:58 PM 54.1 °F - 46.4 °F 75% 30.15 in 10.0 mi WNW 5.8 mph - N/A   Clear
9:58 PM 53.1 °F - 46.8 °F 79% 30.14 in 10.0 mi WNW 5.8 mph - N/A   Clear
10:58 PM 52.9 °F - 48.0 °F 84% 30.14 in 10.0 mi WNW 9.2 mph - N/A   Clear
11:58 PM 44.6 °F 42.2 °F 42.1 °F 91% 30.12 in 10.0 mi NNW 4.6 mph - N/A   Clear